NOAA 16 DEB, 41163

Orbit data source: Space-Track

NOAA 16 DEB, 41163 is space debris in SSO originally from a launch on Thu, 21 Sep 2000 UTC launched from the Air Force Western Test Range (AFWTR). Debris objects in space refer to the collection of defunct objects orbiting the Earth. Examples of debris include non-operational satellites, rocket bodies, and fragments generated from explosions, collisions, or faulty payload assembly.

Loading next visibility...
Identifier
41163, 2000-055CW
Orbit
SSO
Country
Flag of USUS
Related business
Manufacturer
Unknown
Mission
Spacecraft
Bus & Motor
Unknown
Mass
Unknown
Launch date (UTC)
2000-09-21 (26 years ago)
Launch vehicle
Unknown
Launch site
Air Force Western Test Range (AFWTR)
Object type
Payload
Rocket body
Debris
Shape & HBR
Unknown shape, 0.1 m
Radar Cross Section
Small (<0.1 m²)

Expand to show TLE details & history
Last TLE update: 2 days ago

TLE from 2 days ago
0 NOAA 16 DEB
1 41163U 00055CW  26253.18946898  .00042765  00000-0  35153-2 0  9999
2 41163  99.0083 226.8374 0022402  14.3690 345.8161 14.98806473565926
Epoch: 2026-09-10T04:32Z
TLE epoch observation values (Epoch: 2026-09-10T04:32:50.119Z)
Latitude
-0.00004°
Longitude
169.39783°
Altitude
558.501 km
Speed
7.59 km/s
True Right ascension
15h 07m 20s
True Declination
0° 00' 00"
Sunlit
Object was in daylight at epoch
Visualization orbit readout
Latitude
Unknown
Longitude
Unknown
Altitude
Unknown
Speed
Unknown
Apparent Right ascension
Unknown
Apparent Declination
Unknown
Sunlit
N/A
Visualization observer readout
Local Sidereal Time
15:35:06
Azimuth
Unknown
Elevation
Unknown
Doppler factor
Unknown
Orbital elements
Apogee altitude
583.212 km
Perigee altitude
552.092 km
Semi-major axis
6,945.789 km
Eccentricity
0.00224
Inclination
99.0083°
RAAN
226.8374°
Arg. of periapsis
14.369°
True anomaly
345.75303°
Mean anomaly
345.8161°
Eccentric anomaly
345.78458°
Mean motion
3.74939 °/min
Orbital period
96.02 mins
BSTAR
0.0035153
Loading maneuver chart data...
Computing Atmospheric mass density...
Loading historical data...
Loading historical data...
Loading historical data...
Loading historical data...
Loading historical data...
Loading historical data...
Loading historical data...

Documentation

Showing up to 5 results
|